Weather History for KSAF - September, 2013

Change the Weather History Date:

Wednesday, September 11, 2013

  Actual Average Record
Temperature  
Mean Temperature 65 °F -  
Max Temperature 75 °F 76 °F 89 °F (1997)
Min Temperature 57 °F 50 °F 43 °F (2003)
Growing Degree Days 15 (Base 50)    
Moisture  
Dew Point 58 °F    
Average Humidity 86    
Maximum Humidity 100    
Minimum Humidity 53    
Precipitation  
Precipitation 0.10 in - - ()
Sea Level Pressure  
Sea Level Pressure 30.09 in    
Wind  
Wind Speed 7 mph (ESE)    
Max Wind Speed 20 mph    
Max Gust Speed 24 mph    
Visibility 10 miles    
Events Rain    
Averages and records for this station are not official NWS values.
T = Trace of Precipitation, MM = Missing Value Source: NWS Daily Summary

Daily Weather History Graph

Daily Weather History Graph

Search for Another Location

Airport or City:

Trip Planner

Search our weather history database for the weather conditions in past years. The results will help you decide how hot, cold, wet, or windy it might be!

Date:

Astronomy

Sep. 11, 2013 Rise Set
Actual Time 6:44 AM MDT 7:16 PM MDT
Civil Twilight 6:18 AM MDT 7:42 PM MDT
Nautical Twilight 5:48 AM MDT 8:12 PM MDT
Astronomical Twilight 5:17 AM MDT 8:43 PM MDT
Moon 1:02 PM MDT (9/11) 11:28 PM MDT (9/11)
Length of Visible Light 13h 23m
Length of Day
12h 32m
Waxing Crescent, 39% of the Moon is Illuminated
Sep 11
Waxing Crescent
Sep 12
First Quarter
Sep 19
Full
Sep 26
Last Quarter
Oct 4
New

Hourly Weather History & Observations

Time (MDT) Temp. Dew Point Humidity Pressure Visibility Wind Dir Wind Speed Gust Speed Precip Events Conditions
12:13 AM 59.0 °F 59.0 °F 100% 30.23 in 4.0 mi South 10.4 mph - 0.06 in Rain Rain
12:20 AM 59.0 °F 59.0 °F 100% 30.23 in 6.0 mi SSE 10.4 mph - 0.07 in Rain Light Rain
12:36 AM 60.8 °F 57.2 °F 88% 30.23 in 10.0 mi SE 9.2 mph - 0.08 in Rain Light Rain
12:53 AM 60.1 °F 57.9 °F 93% 29.98 in 10.0 mi SE 5.8 mph - 0.08 in   Overcast
1:40 AM 60.8 °F 57.2 °F 88% 30.22 in 10.0 mi ESE 6.9 mph - 0.00 in Rain Light Rain
1:53 AM 60.1 °F 57.9 °F 93% 29.97 in 10.0 mi SE 4.6 mph - 0.01 in Rain Light Rain
2:24 AM 59.0 °F 57.2 °F 94% 30.21 in 10.0 mi East 6.9 mph - 0.00 in Rain Light Rain
2:36 AM 59.0 °F 57.2 °F 94% 30.21 in 10.0 mi ENE 4.6 mph - 0.00 in   Overcast
2:53 AM 59.0 °F 57.9 °F 96% 29.98 in 8.0 mi ENE 3.5 mph - 0.00 in Rain Light Rain
3:00 AM 59.0 °F 57.2 °F 94% 30.20 in 10.0 mi NE 4.6 mph - 0.00 in   Overcast
3:27 AM 59.0 °F 57.2 °F 94% 30.20 in 10.0 mi NW 4.6 mph - 0.00 in   Overcast
3:53 AM 59.0 °F 59.0 °F 100% 29.98 in 10.0 mi Calm Calm - 0.00 in   Overcast
4:10 AM 60.8 °F 57.2 °F 88% 30.21 in 10.0 mi Calm Calm - N/A   Overcast
4:31 AM 60.8 °F 57.2 °F 88% 30.21 in 10.0 mi SE 4.6 mph - N/A   Overcast
4:53 AM 59.0 °F 59.0 °F 100% 29.99 in 10.0 mi South 3.5 mph - N/A   Mostly Cloudy
5:03 AM 59.0 °F 57.2 °F 94% 30.22 in 10.0 mi South 3.5 mph - N/A   Mostly Cloudy
5:53 AM 57.9 °F 57.9 °F 100% 30.00 in 10.0 mi Calm Calm - N/A   Scattered Clouds
6:08 AM 57.2 °F 57.2 °F 100% 30.22 in 10.0 mi Calm Calm - N/A   Mostly Cloudy
6:53 AM 59.0 °F 59.0 °F 100% 30.00 in 10.0 mi Calm Calm - N/A   Overcast
7:09 AM 60.8 °F 59.0 °F 94% 30.23 in 10.0 mi Calm Calm - N/A   Overcast
7:25 AM 60.8 °F 59.0 °F 94% 30.24 in 10.0 mi Calm Calm - N/A   Overcast
7:32 AM 60.8 °F 59.0 °F 94% 30.24 in 10.0 mi Calm Calm - N/A   Overcast
7:53 AM 60.1 °F 59.0 °F 96% 30.01 in 10.0 mi Calm Calm - N/A   Overcast
8:17 AM 60.8 °F 59.0 °F 94% 30.25 in 10.0 mi North 4.6 mph - N/A   Overcast
8:53 AM 62.1 °F 59.0 °F 90% 30.02 in 10.0 mi North 5.8 mph - N/A   Overcast
9:39 AM 62.6 °F 59.0 °F 88% 30.27 in 10.0 mi NNW 3.5 mph - N/A   Overcast
9:53 AM 62.1 °F 57.9 °F 86% 30.03 in 10.0 mi NNW 3.5 mph - N/A   Overcast
10:04 AM 62.6 °F 57.2 °F 82% 30.27 in 10.0 mi NNW 4.6 mph - N/A   Overcast
10:53 AM 64.0 °F 57.9 °F 80% 30.02 in 10.0 mi NW 3.5 mph - 0.01 in   Overcast
11:53 AM 68.0 °F 57.9 °F 70% 30.00 in 10.0 mi East 3.5 mph - N/A   Partly Cloudy
12:53 PM 70.0 °F 57.0 °F 63% 29.99 in 10.0 mi Variable 4.6 mph - N/A   Partly Cloudy
1:53 PM 72.0 °F 55.0 °F 55% 29.96 in 10.0 mi Variable 4.6 mph - N/A   Partly Cloudy
2:53 PM 73.9 °F 55.9 °F 53% 29.93 in 10.0 mi SSW 4.6 mph - N/A   Scattered Clouds
3:53 PM 73.9 °F 57.9 °F 57% 29.92 in 10.0 mi SSE 15.0 mph 18.4 mph N/A   Partly Cloudy
4:53 PM 72.0 °F 57.0 °F 59% 29.93 in 10.0 mi SE 13.8 mph - N/A   Partly Cloudy
5:53 PM 71.1 °F 59.0 °F 66% 29.94 in 10.0 mi SE 17.3 mph - N/A   Clear
6:53 PM 66.9 °F 59.0 °F 76% 29.96 in 10.0 mi SE 17.3 mph - N/A   Clear
7:53 PM 63.0 °F 57.0 °F 81% 29.99 in 10.0 mi SE 19.6 mph - N/A   Clear
8:53 PM 63.0 °F 55.9 °F 78% 30.01 in 10.0 mi SE 16.1 mph 24.2 mph N/A   Clear
9:53 PM 62.1 °F 57.0 °F 84% 30.03 in 10.0 mi SE 15.0 mph - N/A   Clear
10:53 PM 62.1 °F 55.9 °F 80% 30.03 in 10.0 mi SE 11.5 mph - N/A   Clear
11:53 PM 61.0 °F 55.0 °F 81% 30.01 in 10.0 mi SSE 9.2 mph - N/A   Clear